Weather History for Fort Wayne, IN

Change the Weather History Date:

Wednesday, January 16, 2013

  Actual Average Record
Temperature  
Mean Temperature 29 °F 25 °F  
Max Temperature 35 °F 32 °F 56 °F (1949)
Min Temperature 22 °F 17 °F -19 °F (1972)
Degree Days  
Heating Degree Days 36 40  
Month to date heating degree days 581 639  
Since 1 July heating degree days 2783 2967  
Cooling Degree Days 0 0  
Month to date cooling degree days 0 0  
Year to date cooling degree days 0 0  
Moisture  
Dew Point 23 °F    
Average Humidity 76    
Maximum Humidity 96    
Minimum Humidity 56    
Precipitation  
Precipitation 0.00 in 0.07 in 1.08 in (1952)
Month to date precipitation 2.46 1.24  
Year to date precipitation 2.46 1.24  
Snow  
Snow 0.00 in 0.40 in 3.60 in (1994)
Month to date snowfall 0.2 5.1  
Since 1 July snowfall 9.8 15.7  
Snow Depth 0.00 in    
Sea Level Pressure  
Sea Level Pressure 30.03 in    
Wind  
Wind Speed 10 mph (WSW)    
Max Wind Speed 21 mph    
Max Gust Speed 25 mph    
Visibility 10 miles    
Events      
T = Trace of Precipitation, MM = Missing Value Source: NWS Daily Summary

Daily Weather History Graph

Daily Weather History Graph

Search for Another Location

Airport:

Trip Planner

Search our weather history database for the weather conditions in past years. The results will help you decide how hot, cold, wet, or windy it might be!

Date:

Astronomy

Jan. 16, 2013 Rise Set
Actual Time 8:02 AM EST 5:38 PM EST
Civil Twilight 7:32 AM EST 6:08 PM EST
Nautical Twilight 6:58 AM EST 6:42 PM EST
Astronomical Twilight 6:25 AM EST 7:15 PM EST
Moon 10:35 AM EST (1/16) 11:32 PM EST (1/16)
Length of Visible Light 10h 36m
Length of Day
9h 36m
Waxing Crescent, 28% of the Moon is Illuminated
Jan 16
Waxing Crescent
Jan 18
First Quarter
Jan 26
Full
Feb 3
Last Quarter
Feb 10
New

Hourly Weather History & Observations

Time (EST) Temp. Windchill Dew Point Humidity Pressure Visibility Wind Dir Wind Speed Gust Speed Precip Events Conditions
12:54 AM 24.8 °F 17.9 °F 19.4 °F 80% 30.10 in 10.0 mi NE 5.8 mph - N/A   Mostly Cloudy
1:54 AM 21.9 °F - 19.0 °F 89% 30.10 in 10.0 mi Calm Calm - N/A   Scattered Clouds
2:54 AM 23.0 °F 18.4 °F 19.9 °F 88% 30.11 in 10.0 mi NNW 3.5 mph - N/A   Overcast
3:54 AM 23.0 °F - 19.9 °F 88% 30.11 in 10.0 mi Calm Calm - N/A   Overcast
4:54 AM 23.0 °F - 21.0 °F 92% 30.06 in 10.0 mi Calm Calm - N/A   Overcast
5:54 AM 24.1 °F - 21.0 °F 88% 30.05 in 10.0 mi Calm Calm - N/A   Mostly Cloudy
6:54 AM 23.0 °F - 21.0 °F 92% 30.05 in 10.0 mi Calm Calm - N/A   Mostly Cloudy
7:54 AM 23.0 °F 18.4 °F 21.0 °F 92% 30.04 in 10.0 mi SW 3.5 mph - N/A   Mostly Cloudy
8:54 AM 23.0 °F 17.0 °F 21.0 °F 92% 30.02 in 8.0 mi SW 4.6 mph - N/A   Scattered Clouds
9:54 AM 27.0 °F 16.7 °F 23.0 °F 85% 30.06 in 8.0 mi SW 11.5 mph - N/A   Partly Cloudy
10:54 AM 28.9 °F 17.3 °F 23.0 °F 78% 30.03 in 10.0 mi West 16.1 mph - N/A   Scattered Clouds
11:54 AM 30.9 °F 20.7 °F 23.0 °F 72% 30.01 in 10.0 mi WSW 13.8 mph - N/A   Partly Cloudy
12:54 PM 33.1 °F 23.9 °F 23.0 °F 66% 29.97 in 10.0 mi West 12.7 mph - N/A   Partly Cloudy
1:54 PM 34.0 °F 23.8 °F 21.9 °F 61% 29.95 in 10.0 mi SW 16.1 mph - N/A   Scattered Clouds
2:54 PM 35.6 °F 25.9 °F 21.2 °F 56% 29.91 in 10.0 mi WSW 16.1 mph - N/A   Scattered Clouds
3:54 PM 35.1 °F 25.2 °F 21.0 °F 57% 29.94 in 10.0 mi SW 16.1 mph - N/A   Scattered Clouds
4:54 PM 34.0 °F 25.0 °F 21.9 °F 61% 29.97 in 10.0 mi SW 12.7 mph - N/A   Scattered Clouds
5:54 PM 32.0 °F 22.5 °F 23.0 °F 69% 29.99 in 10.0 mi SW 12.7 mph - N/A   Mostly Cloudy
6:54 PM 32.0 °F 22.5 °F 25.0 °F 75% 29.99 in 10.0 mi SW 12.7 mph - N/A   Mostly Cloudy
7:54 PM 32.0 °F 20.8 °F 24.1 °F 73% 29.99 in 10.0 mi SW 17.3 mph - N/A   Overcast
8:54 PM 33.1 °F 22.6 °F 24.1 °F 70% 30.02 in 10.0 mi WSW 16.1 mph - N/A   Overcast
9:54 PM 33.1 °F 23.0 °F 25.0 °F 72% 30.03 in 10.0 mi West 15.0 mph 25.3 mph N/A   Overcast
10:20 PM 33.8 °F 22.8 °F 26.6 °F 75% 30.01 in 10.0 mi West 18.4 mph - N/A   Overcast
10:54 PM 33.1 °F 23.4 °F 26.1 °F 75% 30.04 in 10.0 mi West 13.8 mph - N/A   Overcast
11:31 PM 33.8 °F 24.8 °F 26.6 °F 75% 30.02 in 10.0 mi WSW 12.7 mph - N/A   Mostly Cloudy
11:54 PM 33.1 °F 23.4 °F 26.1 °F 75% 30.06 in 10.0 mi WSW 13.8 mph - N/A   Overcast